Andover, NJ

10:07 AM EDT on May 24, 2018 (GMT -0400)
Andover

Weather History for K12N - April, 2013

Change the Weather History Date:

Saturday, April 27, 2013

  Actual Average (KFWN) Record (KFWN)
Temperature  
Mean Temperature 52 °F -  
Max Temperature 69 °F 63 °F 91 °F (1990)
Min Temperature 36 °F 38 °F 26 °F (2002)
Degree Days  
Heating Degree Days 13    
Growing Degree Days 2 (Base 50)    
Moisture  
Dew Point 31 °F    
Average Humidity 46    
Maximum Humidity 82    
Minimum Humidity 22    
Precipitation  
Precipitation 0.00 in - - ()
Sea Level Pressure  
Sea Level Pressure 30.36 in    
Wind  
Wind Speed 1 mph (SSW)    
Max Wind Speed 7 mph    
Max Gust Speed -    
Averages and records for this station are not official NWS values.
T = Trace of Precipitation, MM = Missing Value Source: NWS Daily Summary

Daily Weather History Graph

Daily Weather History Graph

Search for Another Location

Airport or City:

Astronomy

Apr. 27, 2013 Rise Set
Actual Time 6:02 AM EDT 7:51 PM EDT
Civil Twilight 5:32 AM EDT 8:21 PM EDT
Nautical Twilight 4:56 AM EDT 8:57 PM EDT
Astronomical Twilight 4:18 AM EDT 9:36 PM EDT
Moon 10:19 PM EDT (4/27) 7:17 AM EDT (4/27)
Length of Visible Light 14h 48m
Length of Day
13h 49m
Waning Gibbous, 95% of the Moon is Illuminated
Apr 27
Waning Gibbous
May 2
Last Quarter
May 9
New
May 18
First Quarter
May 25
Full

Hourly Weather History & Observations

Time (EDT) Temp. Dew Point Humidity Pressure Visibility Wind Dir Wind Speed Gust Speed Precip Events Conditions
12:54 AM 46.0 °F 30.9 °F 56% 30.43 in - Calm Calm - N/A   Unknown
1:54 AM 44.1 °F 30.9 °F 60% 30.43 in - Calm Calm - N/A   Unknown
2:54 AM 41.0 °F 34.0 °F 76% 30.42 in - Calm Calm - N/A   Unknown
3:54 AM 39.0 °F 30.9 °F 73% 30.43 in - Calm Calm - N/A   Unknown
4:54 AM 37.9 °F 32.0 °F 79% 30.43 in - Calm Calm - N/A   Unknown
5:54 AM 36.0 °F 30.9 °F 82% 30.43 in - Calm Calm - N/A   Unknown
6:54 AM 37.0 °F 32.0 °F 82% 30.45 in - Calm Calm - N/A   Unknown
7:54 AM 44.1 °F 35.1 °F 71% 30.45 in - Calm Calm - N/A   Unknown
8:54 AM 48.9 °F 30.9 °F 50% 30.44 in - Calm Calm - N/A   Unknown
9:54 AM 54.0 °F 30.0 °F 40% 30.44 in - Calm Calm - N/A   Unknown
10:54 AM 57.9 °F 30.0 °F 35% 30.43 in - NE 4.6 mph - N/A   Unknown
11:54 AM 61.0 °F 28.9 °F 30% 30.41 in - Calm Calm - N/A   Unknown
12:54 PM 63.0 °F 25.0 °F 24% 30.38 in - Variable 5.8 mph - N/A   Unknown
1:54 PM 64.9 °F 27.0 °F 24% 30.34 in - Calm Calm - N/A   Unknown
2:54 PM 66.0 °F 27.0 °F 23% 30.32 in - Variable 3.5 mph - N/A   Unknown
3:54 PM 68.0 °F 28.0 °F 22% 30.29 in - Variable 4.6 mph - N/A   Unknown
4:54 PM 68.0 °F 28.0 °F 22% 30.28 in - SW 6.9 mph - N/A   Unknown
5:54 PM 68.0 °F 28.9 °F 23% 30.27 in - WSW 6.9 mph - N/A   Unknown
6:54 PM 68.0 °F 28.9 °F 23% 30.27 in - Calm Calm - N/A   Unknown
7:54 PM 64.9 °F 32.0 °F 29% 30.26 in - South 3.5 mph - N/A   Unknown
8:54 PM 62.1 °F 34.0 °F 35% 30.28 in - SSE 3.5 mph - N/A   Unknown
9:54 PM 59.0 °F 32.0 °F 36% 30.29 in - Variable 4.6 mph - N/A   Unknown
10:54 PM 55.9 °F 33.1 °F 42% 30.29 in - Calm Calm - N/A   Unknown
11:54 PM 53.1 °F 37.9 °F 57% 30.29 in - Calm Calm - N/A   Unknown